Location: Sweet Grass
(48.9965°N, 111.9649°W)
Time: 08:13:40
(UTC+00:00)

DIWATA 2B (PO-101) - Pass Details

Date: 08 April 2023
Orbit: 581 x 594 km, 98.0° (Epoch: 03 June)

Event Time Altitude Azimuth Distance (km) Brightness Sun altitude
Exits shadow 10:41:54 21° 300° (WNW) 1,317 ? -19.9°
Drops below altitude 10° 10:43:55 10° 324° (NW) 1,912 ? -19.7°
Sets 10:46:21 0° 337° (NNW) 2,820 ? -19.4°
